N738BA KLGA-KTKI

Flight info

Callsign N738BA
Flight time N/A
Altitude 40000
Route NEWEL J60 DANNR RAV BURGS BICKS OWB ZESAM PYRMD RRONY SLANT3
Aircraft B738/M-SDE2E3FGHIRWXY/LB1

Departure

Time 2026-05-07 18:05
Airport LaGuardia Airport (KLGA)

Arrival

Time N/A
Airport McKinney National Airport (KTKI)
Time Latitude Longitude Altitude Speed Heading
2026-05-07 17:40 40.77747 -73.88052 18 ft 0 kts 292°
2026-05-07 18:00 40.77748 -73.88055 39 ft 1 kts 292°
2026-05-07 18:00 40.77756 -73.88081 19 ft 6 kts 291°
2026-05-07 18:00 40.77746 -73.88151 18 ft 10 kts 233°
2026-05-07 18:01 40.77688 -73.88210 18 ft 11 kts 214°
2026-05-07 18:01 40.77620 -73.88243 19 ft 10 kts 201°
2026-05-07 18:01 40.77578 -73.88191 19 ft 10 kts 93°
2026-05-07 18:01 40.77572 -73.88098 19 ft 10 kts 99°
2026-05-07 18:02 40.77455 -73.88120 18 ft 11 kts 212°
2026-05-07 18:02 40.77390 -73.88175 20 ft 11 kts 213°
2026-05-07 18:02 40.77327 -73.88229 20 ft 11 kts 213°
2026-05-07 18:03 40.77265 -73.88280 20 ft 10 kts 208°
2026-05-07 18:03 40.77198 -73.88316 20 ft 10 kts 197°
2026-05-07 18:03 40.77134 -73.88345 21 ft 9 kts 229°
2026-05-07 18:03 40.77121 -73.88385 22 ft 3 kts 230°
2026-05-07 18:04 40.77108 -73.88388 24 ft 0 kts 172°
2026-05-07 18:04 40.77105 -73.88387 24 ft 3 kts 162°
2026-05-07 18:04 40.77082 -73.88322 26 ft 13 kts 86°
2026-05-07 18:05 40.77179 -73.88198 22 ft 27 kts 29°
2026-05-07 18:05 40.77606 -73.87850 24 ft 125 kts 33°
2026-05-07 18:05 40.78530 -73.87073 498 ft 177 kts 28°
2026-05-07 18:05 40.79645 -73.86074 1539 ft 200 kts 31°
2026-05-07 18:06 40.80851 -73.85095 2633 ft 217 kts 21°
2026-05-07 18:06 40.82416 -73.85023 3137 ft 243 kts 340°
2026-05-07 18:06 40.83721 -73.86437 4117 ft 248 kts 300°
2026-05-07 18:06 40.84181 -73.88654 5260 ft 255 kts 276°
2026-05-07 18:07 40.84313 -73.90959 6651 ft 246 kts 276°
2026-05-07 18:07 40.84420 -73.93176 7987 ft 240 kts 272°
2026-05-07 18:07 40.84471 -73.95352 9274 ft 235 kts 270°
2026-05-07 18:07 40.84522 -73.97495 10423 ft 235 kts 270°
2026-05-07 18:08 40.84593 -73.99749 10875 ft 261 kts 270°
2026-05-07 18:08 40.84694 -74.02229 11498 ft 275 kts 270°
2026-05-07 18:08 40.84822 -74.04767 12485 ft 278 kts 270°
2026-05-07 18:08 40.84967 -74.07320 13564 ft 279 kts 269°
2026-05-07 18:09 40.85124 -74.09888 14481 ft 283 kts 269°
2026-05-07 18:09 40.85288 -74.12472 15292 ft 288 kts 270°
2026-05-07 18:09 40.85463 -74.15126 16126 ft 292 kts 270°
2026-05-07 18:09 40.85645 -74.17828 16974 ft 297 kts 270°
2026-05-07 18:10 40.85831 -74.20566 17806 ft 302 kts 270°
2026-05-07 18:10 40.86022 -74.23342 18603 ft 304 kts 270°
2026-05-07 18:10 40.86215 -74.26104 19577 ft 300 kts 269°
2026-05-07 18:10 40.86405 -74.28829 20537 ft 296 kts 269°
2026-05-07 18:11 40.86530 -74.30620 21143 ft 295 kts 268°
2026-05-07 18:11 40.86717 -74.33322 21978 ft 295 kts 268°
2026-05-07 18:11 40.86903 -74.36022 22865 ft 295 kts 269°
2026-05-07 18:11 40.87089 -74.38746 23486 ft 301 kts 268°
2026-05-07 18:12 40.87277 -74.41505 24101 ft 302 kts 268°
2026-05-07 18:12 40.87465 -74.44268 24782 ft 301 kts 268°
2026-05-07 18:12 40.87652 -74.47020 25407 ft 301 kts 267°
2026-05-07 18:12 40.87840 -74.49794 26008 ft 303 kts 267°
2026-05-07 18:13 40.88027 -74.52571 26587 ft 304 kts 267°
2026-05-07 18:13 40.88214 -74.55358 27183 ft 305 kts 266°
2026-05-07 18:13 40.88401 -74.58154 27774 ft 305 kts 266°
2026-05-07 18:13 40.88588 -74.60958 28292 ft 308 kts 266°
2026-05-07 18:14 40.88775 -74.63782 28826 ft 309 kts 266°
2026-05-07 18:14 40.88963 -74.66616 29363 ft 310 kts 266°
2026-05-07 18:14 40.89152 -74.69459 29929 ft 311 kts 265°
2026-05-07 18:14 40.89339 -74.72317 30293 ft 314 kts 265°
2026-05-07 18:15 40.89525 -74.75162 30650 ft 316 kts 266°
2026-05-07 18:15 40.89715 -74.78063 31040 ft 317 kts 266°
2026-05-07 18:15 40.89905 -74.80978 31411 ft 319 kts 266°
2026-05-07 18:15 40.90095 -74.83911 31784 ft 321 kts 266°
2026-05-07 18:16 40.90285 -74.86860 32138 ft 322 kts 266°
2026-05-07 18:16 40.90475 -74.89820 32475 ft 324 kts 266°
2026-05-07 18:16 40.90666 -74.92785 32914 ft 323 kts 266°
2026-05-07 18:16 40.90856 -74.95723 33472 ft 319 kts 266°
2026-05-07 18:17 40.91042 -74.98634 33973 ft 316 kts 266°
2026-05-07 18:17 40.91225 -75.01534 34283 ft 317 kts 266°
2026-05-07 18:17 40.91408 -75.04455 34521 ft 320 kts 266°
2026-05-07 18:17 40.91591 -75.07390 34839 ft 321 kts 266°
2026-05-07 18:18 40.91775 -75.10350 35059 ft 324 kts 266°
2026-05-07 18:18 40.91928 -75.13322 35362 ft 321 kts 263°
2026-05-07 18:18 40.91812 -75.16252 35655 ft 319 kts 259°
2026-05-07 18:18 40.91538 -75.19160 35894 ft 319 kts 257°
2026-05-07 18:19 40.91053 -75.22018 36156 ft 318 kts 252°
2026-05-07 18:19 40.90407 -75.24819 36397 ft 319 kts 251°
2026-05-07 18:19 40.89741 -75.27623 36658 ft 320 kts 251°
2026-05-07 18:19 40.89073 -75.30432 36949 ft 321 kts 251°
2026-05-07 18:20 40.88414 -75.33221 37210 ft 322 kts 251°
2026-05-07 18:20 40.87739 -75.36090 37450 ft 324 kts 251°
2026-05-07 18:20 40.87079 -75.38894 37704 ft 324 kts 252°
2026-05-07 18:20 40.86408 -75.41741 37948 ft 325 kts 252°
2026-05-07 18:21 40.85730 -75.44607 38129 ft 329 kts 252°
2026-05-07 18:21 40.84358 -75.50399 38754 ft 325 kts 252°
2026-05-07 18:21 40.83684 -75.53243 38983 ft 325 kts 252°
2026-05-07 18:22 40.83004 -75.56109 39059 ft 329 kts 252°
2026-05-07 18:22 40.82547 -75.58028 39163 ft 330 kts 252°
2026-05-07 18:22 40.81628 -75.61895 39486 ft 329 kts 252°
2026-05-07 18:22 40.80941 -75.64776 39679 ft 330 kts 252°
2026-05-07 18:23 40.80253 -75.67663 39851 ft 331 kts 252°
2026-05-07 18:23 40.78858 -75.73500 39906 ft 337 kts 252°
2026-05-07 18:24 40.77431 -75.79454 39939 ft 344 kts 252°
2026-05-07 18:24 40.75979 -75.85499 39911 ft 351 kts 252°
2026-05-07 18:25 40.74985 -75.89631 39913 ft 354 kts 252°